Flag for Germany Weather past 2 weeks in Munich, Bavaria, Germany

Now
70 °F

Sunny.


Feels Like: 70 °F
Forecast: 54 / 78 °F
Wind: 9 mph from East

Location: Oberpfaffenhofen

Current Time: Jul 31, 2015 at 10:23:34 PM

Latest Report: Jul 31, 2015 at 7:50 PM


Visibility: 10 mi

Pressure: 29.98 "Hg (28.20 "Hg at 526m altitude)

Humidity: 38%

Dew point: 43 °F

Location of MunichLocation

Historic Weather in Munich — Graph

°F

Munich temperature yesterday

Maximum temperature yesterday: 68 °F (at 2:50 PM)
Minimum temperature yesterday: 48 °F (at 6:50 AM)
Average temperature yesterday: 63 °F

Past Weeks' High & Low Weather Summary

 TemperatureHumidityPressure
High93 °F (Jul 22, 1:50 PM)100% (Jul 20, 6:50 AM)30.15 "Hg (Jul 20, 6:50 AM)
Low46 °F (Jul 31, 6:50 AM)18% (Jul 17, 3:20 PM)29.77 "Hg (Jul 24, 6:50 PM)
Average73 °F56%29.97 "Hg
* Reported Jul 16 7:20 PM — Jul 31 7:50 PM, Munich, Weather by CustomWeather, © 2015

Note: Actual official high and low records may vary slightly from our data, if they occured in-between our weather recording intervals... More about our weather records

Advertising

Munich weather history for previous 24 hours

 ConditionsComfort  
Time TempWeatherWind HumidityBarometerVisibility
7:50 PM
Fri, Jul 31
70 °FSunny.9 mph38%29.98 "Hg10 mi
7:20 PM72 °FSunny.9 mph33%29.98 "Hg10 mi
6:50 PM72 °FSunny.9 mph33%29.98 "Hg10 mi
6:20 PM72 °FSunny.12 mph31%29.98 "Hg10 mi
5:50 PM73 °FSunny.10 mph31%29.98 "Hg10 mi
5:20 PM73 °FSunny.10 mph29%29.98 "Hg10 mi
4:50 PM73 °FSunny.15 mph31%29.98 "Hg10 mi
4:20 PM73 °FSunny.9 mph29%30.01 "Hg10 mi
3:50 PM73 °FSunny.10 mph29%30.01 "Hg10 mi
3:20 PM72 °FSunny.8 mph29%30.01 "Hg10 mi
2:50 PM72 °FPassing clouds.8 mph31%30.01 "HgN/A
2:20 PM72 °FPassing clouds.9 mph31%30.04 "HgN/A
1:50 PM72 °FPassing clouds.8 mph33%30.04 "HgN/A
1:20 PM68 °FPassing clouds.9 mph35%30.07 "HgN/A
12:50 PM70 °FSunny.6 mph33%30.07 "Hg10 mi
12:20 PM68 °FPassing clouds.8 mph38%30.07 "HgN/A
11:50 AM68 °FSunny.3 mph40%30.07 "Hg10 mi
11:20 AM66 °FPassing clouds.7 mph43%30.07 "HgN/A
10:50 AM66 °FSunny.6 mph43%30.09 "Hg10 mi
10:20 AM64 °FPassing clouds.7 mph43%30.09 "HgN/A
9:20 AM61 °FSunny.6 mph55%30.09 "Hg10 mi
8:50 AM61 °FSunny.1 mph63%30.09 "Hg10 mi
8:20 AM59 °FSunny.No wind72%30.09 "Hg10 mi
7:50 AM57 °FSunny.No wind82%30.09 "Hg10 mi
7:20 AM50 °FSunny.2 mph94%30.09 "Hg10 mi
6:50 AM46 °FSunny.1 mph93%30.09 "Hg10 mi
Weather by CustomWeather, © 2015

See weather overviewHow to use our weather pages